Miscellaneous Local Product
Issued by NWS North Platte, NE

Home | Current Version | Previous Version | Graphics & Text | Print | Product List | Glossary On
Versions: 1 2 3 4 5 6 7 8 9 10 11 12 13 14 15 16 17 18 19 20 21 22 23 24 25 26 27 28 29 30 31 32 33 34 35 36 37 38 39 40 41 42 43 44 45 46 47 48 49 50
000
AXUS43 KLBF 252210
MISLBF


WESTERN AND NORTH CENTRAL NEBRASKA HOURLY WEATHER ROUNDUP
NATIONAL WEATHER SERVICE NORTH PLATTE NE
400 PM CST SAT FEB 25 2017

NOTE: "FAIR" INDICATES FEW OR NO CLOUDS BELOW 12,000 FEET WITH NO
SIGNIFICANT WEATHER AND/OR OBSTRUCTIONS TO VISIBILITY.

NOTE: STATIONS NOT REPORTING VARIABLES SUCH AS SKY/WEATHER OR
PRESSURE ARE PROVIDED BY RAWS AND APRS NETWORKS AND ARE NOT UNDER
NATIONAL WEATHER SERVICE QUALITY CONTROL.

...OBSERVATIONS IN AND NEAR THE EASTERN PANHANDLE OF NEBRASKA...

CITY           SKY/WX    TMP DP  RH WIND       PRES   REMARKS
PINE RIDGE     PTSUNNY   29  17  61 W15       29.82F WCI  18
CHADRON        SUNNY     28  14  55 W10       29.82F WCI  19
ALLIANCE       CLOUDY    23  14  68 W13       29.82F WCI  11
SIDNEY         CLOUDY    28  12  51 W14       29.86S WCI  17
CRESCENT LAKE    N/A     27  13  55 W9G18       N/A  WCI  18
$$

...OBSERVATIONS IN NORTHERN NEBRASKA AND FAR SOUTHERN SOUTH DAKOTA...

CITY           SKY/WX    TMP DP  RH WIND       PRES   REMARKS
WINNER         FAIR      36  24  62 SW9       29.83F WCI  29
VALENTINE      SUNNY     29  19  66 W12       29.84F WCI  19
THEDFORD       SUNNY     31  20  66 W9        29.87S WCI  22
AINSWORTH      SUNNY     30  21  69 W14       29.84F WCI  19
O`NEILL        SUNNY     30  20  66 SW13      29.88S WCI  20
ORD            SUNNY     34  19  54 W14       29.88F WCI  25
BROKEN BOW     SUNNY     33  21  61 W10       29.88S WCI  25
VALENTINE NWR    N/A     29  20  69 W15         N/A  WCI  18
BUTTE            N/A     28  21  74 SW9G16      N/A  WCI  19
HALSEY           N/A     34  17  50 W9G16       N/A  WCI  27
CHAMBERS         N/A     33  18  53 S3G12       N/A
EWING            N/A     32  24  71 SW13        N/A  WCI  22
$$

...OBSERVATIONS IN SOUTHWEST NEBRASKA AND FAR NORTHEAST COLORADO...

CITY           SKY/WX    TMP DP  RH WIND       PRES   REMARKS
HOLYOKE        FAIR      37  16  41 NW13      29.89S WCI  29
IMPERIAL       SUNNY     36  10  34 NW17G28   29.89F WCI  26
OGALLALA       CLOUDY    33  17  53 NW16      29.88F WCI  22
NORTH PLATTE   SUNNY     34  21  59 NW13      29.88F WCI  25
MCCOOK         MOSUNNY   41  19  41 NW18G24   29.92F
LEXINGTON      SUNNY     37  22  55 W18G24    29.91S WCI  26
STAPLETON        N/A     32  22  68 CALM        N/A
GOTHENBURG       N/A     34  19  54 W8          N/A  WCI  27
CALLAWAY         N/A     31  22  68 W15         N/A  WCI  20
$$

...OBSERVATIONS IN CENTRAL LINCOLN COUNTY AREA...

CITY           SKY/WX    TMP DP  RH WIND       PRES   REMARKS
N.P. AIRPORT   SUNNY     34  21  59 NW13      29.88F WCI  25
N.P. DOWNTOWN    N/A     18  11  74 W3          N/A
N.P. SOUTHEAST   N/A     34  21  58 NW5G13      N/A  WCI  30
N.P. HILLCREST   N/A     34  23  64 NW12        N/A  WCI  25
$$

...SOME OBSERVATIONS FROM AROUND THE REGION...

CITY           SKY/WX    TMP DP  RH WIND       PRES   REMARKS
LARAMIE        CLOUDY    18   4  54 W18G32    29.75R WCI   2
CHEYENNE       CLOUDY    23   5  46 W21G29    29.77F WCI   8
DENVER         MOSUNNY   37  -1  20 NW26      29.79F WCI  25
AKRON          MOSUNNY   34  17  50 S8        29.84F WCI  27
SCOTTSBLUFF    CLOUDY    29  13  51 W7        29.84F WCI  22
RAPID CITY     CLOUDY    30  22  72 VRB3      29.77F
BISMARCK       SUNNY     29  20  69 SW6       29.79S WCI  23
PIERRE         CLOUDY    35  24  64 NW12G21   29.79F WCI  27
SIOUX FALLS    MOSUNNY   28  17  63 S20       29.89F WCI  15
OMAHA          MOSUNNY   33  13  43 S14       30.03F WCI  23
GRAND ISLAND   PTSUNNY   37  28  70 S14       29.92F WCI  28
KANSAS CITY    MOSUNNY   40  10  29 SW12      30.09F WCI  33
WICHITA        MOSUNNY   44  15  31 S14       30.07F
OKLAHOMA CITY  SUNNY     48  13  24 S9        30.09F
DALLAS         SUNNY     53  20  27 CALM      30.12F
AMARILLO       SUNNY     51  17  26 S18G26    29.95F
DODGE CITY     SUNNY     47  13  25 SW16      29.96F
HAYS           MOSUNNY   47  15  27 SW20G25   29.96F
GOODLAND       SUNNY     40   5  23 N13       29.89F WCI  32
$$




USA.gov is the U.S. government's official web portal to all federal, state and local government web resources and services.